Simultaneous Nadir Overpasses (SNOs) Predictions

Prediction of SNOs between GOES-14 and NOAA-20 Satellite Orbit:

Table of predicted SNOs for the next 14.0 days since TLE Epoch: 6/12/2021
Index Date Time (GOES-14) GOES-14 Lat,Lon NOAA-20 Lat,Lon Distance(km) Time Diff (sec)
1 06/12/2021 08:30:31 -0.00,-104.10 0.60,-106.69 295.90 80
2 06/13/2021 08:14:27 0.01,-104.10 -0.41,-102.16 220.67 80
3 06/14/2021 20:33:45 0.01,-104.32 -0.68,-107.49 360.88 80
4 06/15/2021 20:17:39 -0.00,-104.32 0.27,-102.95 155.39 80
5 06/17/2021 08:36:48 -0.03,-104.09 0.88,-108.22 471.27 80
6 06/18/2021 08:20:42 -0.01,-104.09 -0.07,-103.68 45.46 80
7 06/20/2021 20:21:16 0.03,-104.31 -0.00,-104.48 19.18 80
8 06/21/2021 20:05:12 0.01,-104.31 1.02, -99.95 496.93 80
9 06/23/2021 08:24:19 -0.05,-104.07 0.20,-105.21 130.58 80
10 06/24/2021 08:08:14 -0.04,-104.06 -0.81,-100.68 385.59 80
11 06/25/2021 20:27:32 0.07,-104.29 -0.33,-106.00 195.52 80
